TimeCDT,TemperatureF,Dew PointF,Humidity,Sea Level PressureIn,VisibilityMPH,Wind Direction,Wind SpeedMPH,Gust SpeedMPH,PrecipitationIn,Events,Conditions,WindDirDegrees,DateUTC
12:15 AM,32.0,30.2,93,30.05,10.0,Calm,Calm,-,N/A,,Clear,0,2013-03-12 05:15:00
12:35 AM,32.0,30.2,93,30.05,10.0,Calm,Calm,-,N/A,,Clear,0,2013-03-12 05:35:00
12:55 AM,32.0,32.0,100,30.05,10.0,Calm,Calm,-,N/A,,Clear,0,2013-03-12 05:55:00
1:15 AM,32.0,30.2,93,30.06,10.0,Calm,Calm,-,N/A,,Clear,0,2013-03-12 06:15:00
1:35 AM,32.0,28.4,87,30.06,10.0,Calm,Calm,-,N/A,,Clear,0,2013-03-12 06:35:00
1:55 AM,32.0,30.2,93,30.08,10.0,Calm,Calm,-,N/A,,Clear,0,2013-03-12 06:55:00
2:15 AM,30.2,30.2,100,30.10,10.0,Calm,Calm,-,N/A,,Clear,0,2013-03-12 07:15:00
2:35 AM,32.0,32.0,100,30.09,10.0,Calm,Calm,-,N/A,,Scattered Clouds,0,2013-03-12 07:35:00
2:55 AM,32.0,32.0,100,30.08,10.0,Calm,Calm,-,N/A,,Mostly Cloudy,0,2013-03-12 07:55:00
3:15 AM,32.0,32.0,100,30.07,10.0,Calm,Calm,-,N/A,,Overcast,0,2013-03-12 08:15:00
3:35 AM,32.0,32.0,100,30.07,10.0,Calm,Calm,-,N/A,,Overcast,0,2013-03-12 08:35:00
3:55 AM,32.0,32.0,100,30.07,10.0,Calm,Calm,-,N/A,,Overcast,0,2013-03-12 08:55:00
4:15 AM,32.0,32.0,100,30.08,10.0,Calm,Calm,-,N/A,,Overcast,0,2013-03-12 09:15:00
4:35 AM,33.8,32.0,93,30.09,10.0,Calm,Calm,-,N/A,,Overcast,0,2013-03-12 09:35:00
4:55 AM,33.8,32.0,93,30.11,10.0,Calm,Calm,-,N/A,,Overcast,0,2013-03-12 09:55:00
5:15 AM,33.8,32.0,93,30.13,10.0,Calm,Calm,-,N/A,,Overcast,0,2013-03-12 10:15:00
5:35 AM,33.8,32.0,93,30.13,10.0,Calm,Calm,-,N/A,Rain,Light Rain,0,2013-03-12 10:35:00
5:55 AM,35.6,32.0,87,30.14,10.0,SSW,8.1,-,N/A,,Overcast,200,2013-03-12 10:55:00
6:15 AM,35.6,32.0,87,30.13,10.0,SSW,5.8,-,N/A,,Overcast,200,2013-03-12 11:15:00
6:35 AM,35.6,32.0,87,30.15,10.0,Calm,Calm,-,N/A,,Overcast,0,2013-03-12 11:35:00
6:55 AM,35.6,32.0,87,30.15,10.0,Calm,Calm,-,N/A,,Overcast,0,2013-03-12 11:55:00
7:15 AM,35.6,32.0,87,30.15,10.0,Calm,Calm,-,N/A,,Overcast,0,2013-03-12 12:15:00
7:35 AM,35.6,32.0,87,30.16,10.0,Calm,Calm,-,N/A,,Overcast,0,2013-03-12 12:35:00
7:55 AM,35.6,32.0,87,30.16,10.0,Calm,Calm,-,N/A,,Mostly Cloudy,0,2013-03-12 12:55:00
8:15 AM,37.4,32.0,81,30.17,10.0,Calm,Calm,-,N/A,,Mostly Cloudy,0,2013-03-12 13:15:00
8:35 AM,37.4,33.8,87,30.20,10.0,Calm,Calm,-,N/A,,Overcast,0,2013-03-12 13:35:00
8:55 AM,41.0,32.0,70,30.21,10.0,West,5.8,-,N/A,,Overcast,280,2013-03-12 13:55:00
9:15 AM,42.8,32.0,66,30.22,10.0,Calm,Calm,-,N/A,,Overcast,0,2013-03-12 14:15:00
9:35 AM,42.8,32.0,66,30.22,10.0,WNW,5.8,-,N/A,,Mostly Cloudy,300,2013-03-12 14:35:00
9:55 AM,42.8,32.0,66,30.22,10.0,NW,5.8,-,N/A,,Mostly Cloudy,310,2013-03-12 14:55:00
10:15 AM,42.8,32.0,66,30.24,10.0,WNW,3.5,-,N/A,,Scattered Clouds,300,2013-03-12 15:15:00
10:35 AM,44.6,32.0,61,30.24,10.0,NW,8.1,-,N/A,,Clear,320,2013-03-12 15:35:00
10:55 AM,46.4,32.0,57,30.25,10.0,NW,5.8,-,N/A,,Scattered Clouds,320,2013-03-12 15:55:00
11:15 AM,46.4,32.0,57,30.25,10.0,NNW,3.5,-,N/A,,Scattered Clouds,340,2013-03-12 16:15:00
11:35 AM,48.2,32.0,54,30.25,10.0,NW,5.8,-,N/A,,Scattered Clouds,310,2013-03-12 16:35:00
11:55 AM,50.0,30.2,47,30.25,10.0,NNW,4.6,-,N/A,,Clear,340,2013-03-12 16:55:00
12:15 PM,50.0,30.2,47,30.25,10.0,NNW,5.8,-,N/A,,Clear,330,2013-03-12 17:15:00
12:35 PM,53.6,28.4,38,30.25,10.0,NNW,6.9,-,N/A,,Clear,340,2013-03-12 17:35:00
12:55 PM,53.6,30.2,41,30.25,10.0,NNW,6.9,-,N/A,,Clear,340,2013-03-12 17:55:00
1:15 PM,53.6,28.4,38,30.25,10.0,North,9.2,-,N/A,,Clear,350,2013-03-12 18:15:00
1:35 PM,55.4,28.4,36,30.24,10.0,NW,6.9,-,N/A,,Clear,310,2013-03-12 18:35:00
1:55 PM,53.6,28.4,38,30.24,10.0,NNW,9.2,-,N/A,,Clear,330,2013-03-12 18:55:00
2:15 PM,55.4,30.2,38,30.23,10.0,NW,10.4,-,N/A,,Clear,320,2013-03-12 19:15:00
2:35 PM,55.4,28.4,36,30.23,10.0,NW,10.4,-,N/A,,Clear,320,2013-03-12 19:35:00
2:55 PM,55.4,28.4,36,30.23,10.0,WNW,12.7,16.1,N/A,,Clear,300,2013-03-12 19:55:00
3:15 PM,55.4,28.4,36,30.22,10.0,NW,12.7,21.9,N/A,,Clear,320,2013-03-12 20:15:00
3:35 PM,57.2,30.2,36,30.22,10.0,WNW,9.2,-,N/A,,Clear,290,2013-03-12 20:35:00
3:55 PM,57.2,30.2,36,30.22,10.0,NNW,16.1,-,N/A,,Clear,330,2013-03-12 20:55:00
4:15 PM,55.4,30.2,38,30.22,10.0,WNW,13.8,18.4,N/A,,Clear,290,2013-03-12 21:15:00
4:35 PM,57.2,30.2,36,30.22,10.0,WNW,11.5,18.4,N/A,,Scattered Clouds,300,2013-03-12 21:35:00
4:55 PM,55.4,30.2,38,30.21,10.0,NW,13.8,18.4,N/A,,Scattered Clouds,320,2013-03-12 21:55:00
5:15 PM,55.4,30.2,38,30.22,10.0,WNW,11.5,18.4,N/A,,Scattered Clouds,300,2013-03-12 22:15:00
5:35 PM,55.4,30.2,38,30.22,10.0,NW,10.4,-,N/A,,Clear,320,2013-03-12 22:35:00
5:55 PM,53.6,30.2,41,30.22,10.0,NW,10.4,-,N/A,,Scattered Clouds,320,2013-03-12 22:55:00
6:15 PM,53.6,30.2,41,30.22,10.0,NW,13.8,18.4,N/A,,Scattered Clouds,310,2013-03-12 23:15:00
6:35 PM,53.6,30.2,41,30.22,10.0,NW,10.4,18.4,N/A,,Scattered Clouds,310,2013-03-12 23:35:00
6:55 PM,51.8,30.2,44,30.23,10.0,NW,12.7,19.6,N/A,,Scattered Clouds,320,2013-03-12 23:55:00
7:15 PM,51.8,28.4,41,30.25,10.0,NNW,11.5,19.6,N/A,,Clear,330,2013-03-13 00:15:00
7:35 PM,50.0,28.4,43,30.26,10.0,NW,11.5,18.4,N/A,,Clear,320,2013-03-13 00:35:00
7:55 PM,50.0,26.6,40,30.27,10.0,NNW,16.1,19.6,N/A,,Clear,330,2013-03-13 00:55:00
8:15 PM,48.2,24.8,40,30.29,10.0,NNW,13.8,18.4,N/A,,Clear,330,2013-03-13 01:15:00
8:35 PM,46.4,24.8,43,30.30,10.0,NNW,10.4,-,N/A,,Clear,330,2013-03-13 01:35:00
8:55 PM,44.6,24.8,46,30.31,10.0,NNW,6.9,-,N/A,,Clear,330,2013-03-13 01:55:00
9:15 PM,44.6,23.0,43,30.31,10.0,NNW,8.1,-,N/A,,Clear,330,2013-03-13 02:15:00
9:35 PM,44.6,23.0,43,30.32,10.0,NW,4.6,-,N/A,,Clear,320,2013-03-13 02:35:00
9:55 PM,42.8,23.0,46,30.33,10.0,WNW,3.5,-,N/A,,Clear,300,2013-03-13 02:55:00
10:15 PM,42.8,23.0,46,30.33,10.0,Calm,Calm,-,N/A,,Clear,0,2013-03-13 03:15:00
10:35 PM,41.0,23.0,49,30.34,10.0,Calm,Calm,-,N/A,,Clear,0,2013-03-13 03:35:00
10:55 PM,41.0,23.0,49,30.34,10.0,Calm,Calm,-,N/A,,Clear,0,2013-03-13 03:55:00
11:15 PM,41.0,23.0,49,30.35,10.0,North,4.6,-,N/A,,Clear,360,2013-03-13 04:15:00
11:35 PM,41.0,23.0,49,30.36,10.0,North,5.8,-,N/A,,Clear,350,2013-03-13 04:35:00
11:55 PM,41.0,23.0,49,30.36,10.0,North,4.6,-,N/A,,Clear,360,2013-03-13 04:55:00